www.pogodaiklimat.ru

Погода и климат >> Архив погоды >> Беларусь >> Пинск


АРХИВ ПОГОДЫ в Пинске

Время (UTC), дата Ветер
(напр.,м/с)
 
Видим.   Явления Облачность Т
(С)
Тd
(С)
f
(%)
Тe
(С)
Тes
(С)
Комфортность P
(гПа)
Po
(гПа)
Тmin
(С)
Tmax
(С)
R
(мм)
R24
(мм)
S
(см)
00 16.09 ЮЗ 4 10 км 9/9 840 м
[Sc]
+15.1 +8.9 66 +14 +14 тепло 1011.4 994.6
03 16.09 ЮЗ 4 10 км 9/9 800 м
[Sc]
+14.9 +9.5 70 +14 +14 тепло 1010.3 993.5
06 16.09 З 4 12 км 8/0
[Ci fib]
+16.6 +9.9 65 +16 +17 тепло 1010.3 993.6 +14.4
09 16.09 З 5-11
{12}
12 км 8/6 1000 м
[Cu hum Ci fib]
+18.5 +7.2 48 +18 +20 тепло 1010.8 994.3
12 16.09 З 6-11
{12}
12 км 8/4 1000 м
[Cu hum Ac trans Ci fib]
+17.8 +6.3 47 +17 +18 по сезону 1010.8 994.2
15 16.09 З 4
{13}
12 км 8/4 1000 м
[Cu Sc Ci fib]
+17.4 +5.9 47 +17 +17 тепло 1010.3 993.7
18 16.09 З 2 10 км 4/0
[Ac trans]
+13.6 +5.4 58 +13 +13 по сезону 1010.5 993.6 +19.1
21 16.09 З 3 10 км 8/0
[Ci fib]
+11.0 +5.1 67 +9 +9 по сезону 1010.2 993.2
00 17.09 ЮЗ 3 10 км ясно +9.0 +5.1 77 +7 +7 по сезону 1010.0 992.9
03 17.09 ЮЗ 3 10 км 8/0
[Ci fib]
+7.4 +4.7 83 +5 +5 прохладно 1009.8 992.6
06 17.09 З 3 15 км 9/0
[Ci fib]
+9.8 +5.7 76 +8 +9 по сезону 1010.1 993.0 +6.5
09 17.09 З 4
{10}
15 км 8/3 1000 м
[Cu hum Ci fib]
+14.3 +6.1 58 +13 +16 по сезону 1009.5 992.7
12 17.09 ЮЗ 5-11
{10}
15 км 8/6 900 м
[Sc Ac trans]
+16.4 +3.5 42 +16 +17 по сезону 1007.4 990.8
15 17.09 ЮЗ 4
{11}
12 км 9/9 960 м
[Sc]
+14.9 +5.3 53 +14 +14 по сезону 1005.7 989.0
18 17.09 З 2
{10}
10 км 9/9 800 м
[Sc]
+12.4 +5.7 64 +12 +12 по сезону 1004.2 987.4 +17.5
21 17.09 З 1
{11}
10 км в посл. час ливневой дождь 10/10 360 м
[St]
+8.7 +6.3 85 +8 +8 по сезону 1003.3 986.2
00 18.09 З 4 3600 м слаб. ливневой дождь 10/8 300 м
[Cb calv]
+8.2 +7.7 97 +5 +5 прохладно 1002.1 985.0
03 18.09 З 4
{11}
7000 м в посл. час ливневой дождь 10/10 330 м
[St]
+7.1 +5.9 92 +3 +3 холодно 1002.5 985.4
06 18.09 З 4 4200 м слаб. ливневой дождь 10/10 270 м
[Cb calv]
+6.6 +5.8 95 +3 +3 холодно 1004.1 986.9 +6.6 5
09 18.09 З 4 6000 м слаб. ливневой дождь 10/10 240 м
[Cb calv]
+7.7 +6.3 91 +4 +4 очень
холодно
1006.2 989.0
12 18.09 З 4
{11}
10 км в посл. час ливневой дождь 9/8 300 м
[Cb calv Ci fib]
+11.1 +6.6 74 +9 +10 очень
холодно
1007.8 990.8
15 18.09 З 5-10
{12}
10 км {ливн. осадки} 10/8 600 м
[Cb calv Ci fib]
+12.1 +7.3 72 +10 +10 прохладно 1010.1 993.2
18 18.09 З 3
{10}
10 км {гроза, ливн. осадки} 4/0
[Ac trans]
+8.8 +6.7 87 +6 +6 холодно 1013.1 995.9 +12.4 2
21 18.09 З 3 9000 м дымка 9/9 800 м
[Sc]
+7.9 +6.2 89 +5 +5 холодно 1014.7 997.4
00 19.09 ЮЗ 3 6000 м дымка 9/0
[Ac trans]
+6.6 +5.6 93 +3 +3 холодно 1015.6 998.2
03 19.09 З 3 3800 м слаб. ливневой дождь 10/10 540 м
[Cb calv]
+6.7 +6.1 96 +3 +3 холодно 1016.0 998.6
06 19.09 З 3 6000 м дымка {ливн. осадки} 9/9 600 м
[Sc]
+6.8 +5.9 94 +4 +4 прохладно 1017.2 999.8 +6.3 0.6
09 19.09 З 3 9000 м в посл. час ливневой дождь 10/10 420 м
[St]
+8.6 +6.8 88 +6 +6 холодно 1018.5 1001.2
12 19.09 З 4 10 км {ливн. осадки} 8/8 600 м
[Cu Sc]
+12.2 +6.1 66 +10 +11 холодно 1018.5 1001.4
15 19.09 СЗ 1 10 км 9/9 660 м
[Sc]
+12.2 +6.4 68 +12 +12 по сезону 1018.6 1001.5
18 19.09 ЮЗ 1 10 км {ливн. осадки} 6/0
[Ac trans]
+7.9 +5.9 87 +7 +7 прохладно 1019.9 1002.5 +13.1 0.6
21 19.09 СЗ 2 6000 м дымка 4/0
[Ac trans]
+6.2 +5.6 96 +4 +4 холодно 1020.3 1002.8
00 20.09 З 2 3800 м дымка 8/8 960 м
[Sc]
+4.3 +3.9 97 +1 +1 холодно 1020.4 1002.8
03 20.09 З 2 3800 м слаб. ливневой дождь 10/10 270 м
[Cb calv]
+4.3 +4.0 98 +1 +1 холодно 1020.1 1002.5
06 20.09 СЗ 3 9000 м дымка {ливн. осадки} 10/10 330 м
[St]
+6.9 +5.2 89 +4 +4 прохладно 1020.2 1002.7 +3.9 0.1
09 20.09 СЗ 4 10 км 8/6 1000 м
[Cu hum Ci fib]
+9.7 +4.3 69 +7 +9 холодно 1020.7 1003.4
12 20.09 З 4
{11}
10 км 9/9 660 м
[Sc]
+10.7 +1.9 54 +9 +9 холодно 1020.5 1003.3
15 20.09 СЗ 3
{16}
10 км {ливн. осадки} 9/9 800 м
[Sc]
+9.7 +4.1 68 +8 +8 холодно 1021.1 1003.8
18 20.09 З 1 10 км {ливн. осадки} 8/8 800 м
[Sc]
+7.0 +3.0 76 +6 +6 холодно 1022.8 1005.3 +12.2 0.2
21 20.09 С 1 10 км ясно +3.6 +1.4 86 +2 +2 холодно 1023.8 1006.1
00 21.09 СЗ 1 8000 м дымка ясно +0.3 -0.3 96 -2 -2 очень
холодно
1024.2 1006.2
03 21.09 ЮЗ 2 8000 м дымка 9/0
[Ac trans]
+1.8 +1.2 96 -2 -2 очень
холодно
1023.7 1005.8
06 21.09 ЮЗ 2 9000 м дымка 9/0
[Ac und]
+3.3 +1.8 90 0 +1 очень
холодно
1022.7 1005.0 0.0
09 21.09 ЮЗ 4 10 км 10/3 600 м
[Sc Ac und]
+9.2 +6.5 83 +6 +7 холодно 1021.0 1003.7
12 21.09 ЮЗ 3 3200 м слаб. морось {дождь} 10/10 210 м
[St]
+9.3 +8.9 97 +7 +7 очень
холодно
1020.3 1003.0
15 21.09 З 3 3800 м дымка {дождь} 10/10 270 м
[St]
+12.1 +11.4 95 +10 +10 прохладно 1018.5 1001.4
18 21.09 З 4 6000 м дымка {дождь} 10/10 330 м
[St]
+12.6 +11.5 93 +11 +11 по сезону 1018.1 1001.1 +12.8 0.6
21 21.09 З 4
{11}
9000 м дымка 10/10 360 м
[St]
+12.3 +10.8 91 +10 +10 по сезону 1017.7 1000.6
00 22.09 З 3 9000 м дымка 9/9 800 м
[Sc]
+12.5 +10.5 88 +11 +11 тепло 1017.0 1000.0
03 22.09 З 2 9000 м дымка 9/9 1440 м
[Sc]
+12.5 +10.6 88 +12 +12 тепло 1017.2 1000.2
06 22.09 З 2 10 км 8/8 1020 м
[Sc]
+13.0 +10.5 85 +12 +12 тепло 1017.8 1000.8 +12.2
09 22.09 З 4 15 км 6/3 1000 м
[Sc Ac trans]
+16.0 +10.7 71 +15 +18 тепло 1017.2 1000.4
12 22.09 ЮЗ 3 15 км 8/8 960 м
[Sc]
+15.6 +9.9 69 +15 +16 по сезону 1016.3 999.5
15 22.09 ЮЗ 3 20 км ясно +16.6 +10.3 66 +16 +17 тепло 1014.3 997.6
18 22.09 штиль 0 8000 м дымка ясно +11.1 +9.7 91 +10 +10 по сезону 1014.8 997.7 +17.2
21 22.09 СЗ 1 9000 м дымка ясно +12.0 +10.1 88 +12 +12 по сезону 1015.3 998.3

 

Местоположение метеостанции Пинск (Брестская область, Беларусь): широта 52.12 долгота 26.06 высота над уровнем моря 142 м.

В архиве по умолчанию представлена погода в Пинске за последнюю неделю. Архивные данные за месяц целиком и за предыдущие месяцы, начиная с января 2011 года, Вы можете получить, выбрав интересующий диапазон дат из раскрывающегося списка и нажав кнопку "Ввод!".


*Определитесь, кто Вы:
робот инопланетянин человек

Внимание! Время в таблицах - всемирное. Для получения местного времени необходимо прибавить поправку, которая равна 3 ч.

Смотрите также архив погоды в соседних городах и на ближайших метеорологических станциях:

Погода в Полесской (Брестская область, Беларусь) (48 км)
Погода в Дрогичине (Брестская область, Беларусь) (66 км)
Погода в Любешове (Волынская область, Украина) (74 км)
Погода в Ганцевичах (Брестская область, Беларусь) (75 км)
Погода в Ивацевичах (Брестская область, Беларусь) (80 км)
Погода в Маневичах (Волынская область, Украина) (100 км)
Погода в Сарнах (Ровенская область, Украина) (101 км)
Погода в Барановичах (Брестская область, Беларусь) (113 км)
Погода в Пружанах (Брестская область, Беларусь) (117 км)
Погода в Житковичах (Гомельская область, Беларусь) (124 км)

Пояснения к столбцам:

Ветер - указаны скорость ветра в м/с - средняя за 10 мин, порывы в срок и между сроками (в фигурных скобках) и направление, откуда дует ветер: С - северный, СВ - северо-восточный, В - восточный, ЮВ - юго-восточный, Ю - южный, ЮЗ - юго-западный, З - западный, СЗ - северо-западный.
Видимость - горизонтальная дальность видимости в метрах или километрах. При видимости от 1 до 10 км при отсутствии осадков обычно наблюдается дымка, при ухудшении видимости до 1 км и менее - туман. В сухую погоду видимость может ухудшаться дымом, пылью или мглою.
Явления - указаны атмосферные явления, наблюдавшиеся в срок или в последний час перед сроком; фигурными скобками обозначены явления, наблюдавшиеся между сроками (за 1-3 часа до срока); квадратными скобками обозначены град или гололедные отложения с указанием их диаметра в мм.
Облачность - указаны через наклонную черту общая и нижняя облачность в баллах и высота нижней границы облаков в метрах; квадратными скобками обозначены формы облаков: Ci - перистые, Cs - перисто-слоистые, Cc - перисто-кучевые, Ac - высококучевые, As - высокослоистые, Sc - слоисто-кучевые, Ns - слоисто-дождевые, Cu - кучевые, Cb - кучево-дождевые. Подробнее классификацию облаков см. в Атласе облаков (PDF).
T - Температура воздуха - температура, измеренная на высоте 2 м над землей.
Td - Температура точки росы - температура, при понижении до которой содержащийся в воздухе водяной пар достигнет насыщения.
f - Относительная влажность воздуха - влажноcть воздуха, измеренная на высоте 2 м над землей.
Te - Эффективная температура - температура, которую ощущает одетый по сезону человек в тени. Характеристика душности погоды. При расчете учитывается влияние влажности воздуха и скорости ветра на теплоощущения человека.
Tes - Эффективная температура на солнце - температура, которую ощущает человек, с поправкой на солнечный нагрев. Характеристика знойности погоды. Зависит от высоты солнца над горизонтом, облачности и скорости ветра. Ночью, в пасмурную погоду, а также при ветре 12 м/с и более поправка равна нулю.
P - Атмосферное давление - приведенное к уровню моря атмосферное давление.
Po - Атмосферное давление - измеренное на уровне метеостанции атмосферное давление.
Tmin - Минимальная температура - минимум температуры воздуха на высоте 2 м над землей.
Tmax - Максимальная температура - максимум температуры воздуха на высоте 2 м над землей.
R - Количество осадков - Количество выпавших осадков за период времени, мм. При наведении курсора мыши на число - период времени, за который выпало указанное количество осадков.
R24 - Количество осадков - Количество выпавших осадков за 24 часа, мм.
S - Снежный покров - Высота снежного покрова, см. При наведении курсора мыши на число - состояние снежного покрова и степень покрытия местности в баллах.